Location: Proctor
(47.8934°N, 114.3048°W)
Time: 17:29:43
(UTC+00:00)

Transit 4A - Pass Details

Date: 14 May 2025
Orbit: 866 x 975 km, 66.8° (Epoch: 13 June)

Event Time Altitude Azimuth Distance (km) Brightness Sun altitude
Rises 07:11:20 0° 295° (WNW) 3,651 11.4 -23.2°
Reaches altitude 10° 07:15:27 10° 320° (NW) 2,687 11.0 -23.3°
Maximum altitude 07:18:31 14° 350° (N) 2,403 11.1 -23.3°
Drops below altitude 10° 07:21:34 10° 20° (NNE) 2,653 11.2 -23.3°
Sets 07:25:35 0° 46° (NE) 3,571 11.6 -23.4°
